Findlay, OH

9:15 PM EDT on April 25, 2018 (GMT -0400)
Findlay

Weather History for KFDY - October, 2012

Change the Weather History Date:

Tuesday, October 23, 2012

  Actual Average Record
Temperature  
Mean Temperature 62 °F -  
Max Temperature 66 °F 60 °F 81 °F (1963)
Min Temperature 57 °F 40 °F 24 °F (1969)
Degree Days  
Heating Degree Days 4    
Growing Degree Days 12 (Base 50)    
Moisture  
Dew Point 57 °F    
Average Humidity 82    
Maximum Humidity 100    
Minimum Humidity 60    
Precipitation  
Precipitation 0.07 in - - ()
Sea Level Pressure  
Sea Level Pressure 29.98 in    
Wind  
Wind Speed 8 mph (SSW)    
Max Wind Speed 17 mph    
Max Gust Speed 25 mph    
Visibility 9 miles    
Events Rain , Thunderstorm    
Averages and records for this station are not official NWS values.
T = Trace of Precipitation, MM = Missing Value Source: NWS Daily Summary

Daily Weather History Graph

Daily Weather History Graph

Search for Another Location

Airport or City:

Astronomy

Oct. 23, 2012 Rise Set
Actual Time 7:55 AM EDT 6:41 PM EDT
Civil Twilight 7:27 AM EDT 7:09 PM EDT
Nautical Twilight 6:55 AM EDT 7:41 PM EDT
Astronomical Twilight 6:23 AM EDT 8:13 PM EDT
Moon 3:27 PM EDT (10/23) 1:43 AM EDT (10/23)
Length of Visible Light 11h 42m
Length of Day
10h 45m
Waxing Gibbous, 66% of the Moon is Illuminated
Oct 23
Waxing Gibbous
Oct 29
Full
Nov 6
Last Quarter
Nov 13
New
Nov 20
First Quarter

Hourly Weather History & Observations

Time (EDT) Temp. Dew Point Humidity Pressure Visibility Wind Dir Wind Speed Gust Speed Precip Events Conditions
1:07 AM 64.4 °F 55.4 °F 73% 30.00 in 10.0 mi SSE 9.2 mph - 0.01 in   Overcast
1:45 AM 62.6 °F 55.4 °F 77% 30.00 in 1.8 mi Variable 4.6 mph - 0.16 in Rain , Thunderstorm Heavy Thunderstorms and Rain
2:21 AM 62.6 °F 55.4 °F 77% 29.99 in 10.0 mi SE 9.2 mph - 0.00 in   Overcast
2:35 AM 62.6 °F 55.4 °F 77% 29.99 in 10.0 mi SSE 9.2 mph - 0.00 in Thunderstorm Overcast
2:50 AM 62.6 °F 55.4 °F 77% 29.99 in 10.0 mi SSE 9.2 mph - 0.00 in   Overcast
2:53 AM 62.1 °F 55.9 °F 80% 29.96 in 10.0 mi SSE 9.2 mph - 0.00 in   Overcast
3:53 AM 63.0 °F 54.0 °F 72% 29.95 in 10.0 mi South 9.2 mph - N/A   Overcast
4:53 AM 62.1 °F 54.0 °F 75% 29.94 in 10.0 mi South 9.2 mph - N/A   Mostly Cloudy
5:53 AM 64.0 °F 52.0 °F 65% 29.93 in 10.0 mi SSW 11.5 mph - N/A   Clear
6:53 AM 63.0 °F 53.1 °F 70% 29.96 in 10.0 mi SSW 9.2 mph - 0.00 in   Mostly Cloudy
7:53 AM 60.1 °F 54.0 °F 80% 29.96 in 10.0 mi South 8.1 mph - N/A   Overcast
8:53 AM 62.1 °F 53.1 °F 72% 29.96 in 10.0 mi SSW 6.9 mph - N/A   Overcast
9:53 AM 64.9 °F 52.0 °F 63% 29.98 in 10.0 mi SW 11.5 mph - N/A   Overcast
10:53 AM 66.0 °F 52.0 °F 60% 30.00 in 10.0 mi SW 11.5 mph - N/A Thunderstorm Overcast
11:22 AM 64.4 °F 53.6 °F 68% 30.04 in 10.0 mi WSW 12.7 mph 20.7 mph N/A   Overcast
11:53 AM 63.0 °F 55.9 °F 78% 30.02 in 7.0 mi WSW 17.3 mph 25.3 mph 0.01 in Rain Light Rain
1:53 PM 63.0 °F 60.1 °F 90% 29.96 in 10.0 mi SSW 11.5 mph 20.7 mph 0.04 in   Mostly Cloudy
2:25 PM 62.6 °F 60.8 °F 94% 29.96 in 10.0 mi South 9.2 mph - N/A   Scattered Clouds
2:53 PM 63.0 °F 60.1 °F 90% 29.94 in 7.0 mi South 9.2 mph - 0.01 in Rain Light Rain
3:49 PM 62.6 °F 60.8 °F 94% 29.99 in 10.0 mi West 4.6 mph - 0.00 in   Overcast
3:53 PM 63.0 °F 60.1 °F 90% 29.97 in 10.0 mi West 3.5 mph - 0.00 in   Overcast
4:06 PM 62.6 °F 60.8 °F 94% 29.98 in 10.0 mi West 4.6 mph - N/A   Mostly Cloudy
4:53 PM 63.0 °F 60.1 °F 90% 29.96 in 10.0 mi Calm Calm - 0.00 in   Partly Cloudy
5:53 PM 64.0 °F 60.1 °F 87% 29.97 in 10.0 mi Calm Calm - N/A   Clear
6:53 PM 62.1 °F 59.0 °F 90% 29.98 in 10.0 mi NE 3.5 mph - N/A   Partly Cloudy
7:53 PM 61.0 °F 59.0 °F 93% 29.99 in 10.0 mi ENE 3.5 mph - N/A   Overcast
8:53 PM 60.1 °F 57.9 °F 93% 30.00 in 9.0 mi NE 4.6 mph - N/A   Scattered Clouds
9:53 PM 57.9 °F 57.9 °F 100% 30.01 in 5.0 mi Calm Calm - N/A   Mostly Cloudy
10:53 PM 60.1 °F 57.9 °F 93% 30.01 in 5.0 mi Calm Calm - N/A   Overcast
11:53 PM 60.1 °F 57.9 °F 93% 30.02 in 4.0 mi East 5.8 mph - 0.01 in Rain Light Rain